VH314 YSRI-YSRI

Flight info

Callsign VH314
Flight time 0h 9m
Altitude 3400
Route VFR CLOSED TRAFFIC YSRI/YSRI
Aircraft JMB/L-V/N

Departure

Time 2026-05-06 05:28
Airport RAAF Base Richmond (YSRI)

Arrival

Time 2026-05-06 05:38
Airport RAAF Base Richmond (YSRI)
Time Latitude Longitude Altitude Speed Heading
2026-05-06 05:14 -33.60181 150.78279 63 ft 0 kts 260°
2026-05-06 05:24 -33.60195 150.78246 61 ft 17 kts 233°
2026-05-06 05:24 -33.60307 150.78201 61 ft 20 kts 252°
2026-05-06 05:25 -33.60281 150.78040 64 ft 20 kts 288°
2026-05-06 05:25 -33.60240 150.77883 63 ft 21 kts 282°
2026-05-06 05:25 -33.60204 150.77732 66 ft 21 kts 285°
2026-05-06 05:25 -33.60162 150.77572 70 ft 21 kts 287°
2026-05-06 05:26 -33.60106 150.77370 70 ft 29 kts 288°
2026-05-06 05:26 -33.60078 150.77219 67 ft 11 kts 251°
2026-05-06 05:26 -33.60101 150.77158 68 ft 0 kts 196°
2026-05-06 05:27 -33.60102 150.77157 68 ft 3 kts 188°
2026-05-06 05:27 -33.60161 150.77172 70 ft 12 kts 121°
2026-05-06 05:27 -33.60189 150.77282 68 ft 16 kts 107°
2026-05-06 05:27 -33.60272 150.77591 70 ft 75 kts 109°
2026-05-06 05:28 -33.60480 150.78264 244 ft 96 kts 106°
2026-05-06 05:28 -33.60706 150.79054 421 ft 103 kts 104°
2026-05-06 05:28 -33.60876 150.79851 785 ft 97 kts 102°
2026-05-06 05:28 -33.61091 150.80670 959 ft 104 kts 96°
2026-05-06 05:29 -33.60785 150.81255 1064 ft 110 kts 26°
2026-05-06 05:29 -33.60257 150.81707 1253 ft 105 kts 41°
2026-05-06 05:29 -33.59676 150.82262 1316 ft 115 kts 36°
2026-05-06 05:29 -33.59006 150.82746 1512 ft 110 kts 26°
2026-05-06 05:30 -33.58286 150.83077 1643 ft 113 kts 15°
2026-05-06 05:30 -33.57786 150.83191 1736 ft 113 kts
2026-05-06 05:31 -33.57414 150.83203 1813 ft 112 kts 357°
2026-05-06 05:32 -33.56674 150.83011 1929 ft 114 kts 338°
2026-05-06 05:32 -33.55957 150.82592 2054 ft 113 kts 333°
2026-05-06 05:32 -33.55274 150.82120 2219 ft 112 kts 328°
2026-05-06 05:32 -33.54626 150.81594 2342 ft 113 kts 323°
2026-05-06 05:33 -33.54179 150.80824 2421 ft 115 kts 289°
2026-05-06 05:33 -33.53950 150.79941 2576 ft 111 kts 288°
2026-05-06 05:33 -33.53729 150.79023 2669 ft 114 kts 285°
2026-05-06 05:33 -33.53544 150.78102 2802 ft 113 kts 281°
2026-05-06 05:34 -33.53462 150.77163 2927 ft 114 kts 271°
2026-05-06 05:34 -33.53525 150.76219 2920 ft 114 kts 261°
2026-05-06 05:34 -33.53881 150.75398 2666 ft 114 kts 226°
2026-05-06 05:34 -33.54497 150.74764 2344 ft 118 kts 213°
2026-05-06 05:35 -33.55235 150.74344 2101 ft 117 kts 202°
2026-05-06 05:35 -33.55999 150.74002 1872 ft 117 kts 198°
2026-05-06 05:35 -33.56750 150.73710 1660 ft 116 kts 196°
2026-05-06 05:35 -33.57533 150.73451 1428 ft 117 kts 192°
2026-05-06 05:36 -33.58315 150.73228 1257 ft 115 kts 192°
2026-05-06 05:36 -33.59103 150.73019 1037 ft 116 kts 189°
2026-05-06 05:36 -33.59728 150.73366 679 ft 113 kts 100°
2026-05-06 05:36 -33.59729 150.74228 577 ft 104 kts 78°
2026-05-06 05:37 -33.59693 150.75102 453 ft 104 kts 94°
2026-05-06 05:37 -33.59838 150.75949 381 ft 105 kts 103°
2026-05-06 05:37 -33.60058 150.76728 154 ft 92 kts 105°
2026-05-06 05:37 -33.60212 150.77314 97 ft 61 kts 100°
2026-05-06 05:38 -33.60328 150.77770 64 ft 55 kts 101°
2026-05-06 05:38 -33.60405 150.78136 63 ft 37 kts 108°
2026-05-06 05:38 -33.60428 150.78227 63 ft 34 kts 108°
2026-05-06 05:38 -33.60625 150.78793 183 ft 73 kts 110°
2026-05-06 05:39 -33.60779 150.79369 443 ft 70 kts 102°
2026-05-06 05:39 -33.60980 150.80047 486 ft 105 kts 110°
2026-05-06 05:39 -33.61320 150.80896 589 ft 105 kts 114°
2026-05-06 05:39 -33.61659 150.81669 590 ft 111 kts 116°
2026-05-06 05:40 -33.61858 150.82509 630 ft 106 kts 56°
2026-05-06 05:40 -33.61196 150.82769 700 ft 106 kts
2026-05-06 05:40 -33.60419 150.82813 729 ft 110 kts
2026-05-06 05:40 -33.59671 150.82716 788 ft 108 kts 349°
2026-05-06 05:41 -33.58945 150.82429 755 ft 117 kts 330°
2026-05-06 05:41 -33.58604 150.81485 364 ft 136 kts 283°
2026-05-06 05:41 -33.58342 150.80421 164 ft 129 kts 292°
2026-05-06 05:41 -33.58033 150.79445 243 ft 121 kts 282°
2026-05-06 05:42 -33.57951 150.78579 259 ft 94 kts 281°
2026-05-06 05:42 -33.57930 150.77920 302 ft 71 kts 272°
2026-05-06 05:42 -33.57960 150.77347 312 ft 67 kts 269°
2026-05-06 05:42 -33.58010 150.76748 471 ft 77 kts 266°
2026-05-06 05:43 -33.58094 150.75961 616 ft 103 kts 264°
2026-05-06 05:43 -33.58257 150.75116 991 ft 98 kts 253°
2026-05-06 05:43 -33.58390 150.74286 1110 ft 100 kts 262°
2026-05-06 05:43 -33.58446 150.73453 1119 ft 94 kts 270°
2026-05-06 05:44 -33.58446 150.72628 1080 ft 97 kts 269°
2026-05-06 05:44 -33.58441 150.71836 1089 ft 100 kts 275°
2026-05-06 05:44 -33.58341 150.71040 1112 ft 95 kts 286°
2026-05-06 05:44 -33.58094 150.70298 1101 ft 98 kts 299°
2026-05-06 05:45 -33.57742 150.69618 1144 ft 94 kts 308°
2026-05-06 05:45 -33.57323 150.69003 1116 ft 98 kts 315°
2026-05-06 05:45 -33.56852 150.68427 1149 ft 94 kts 320°
2026-05-06 05:45 -33.56359 150.67896 1108 ft 96 kts 320°
2026-05-06 05:46 -33.56161 150.67144 1058 ft 103 kts 257°
2026-05-06 05:46 -33.56633 150.66553 995 ft 100 kts 190°
2026-05-06 05:46 -33.57229 150.66768 936 ft 92 kts 126°
2026-05-06 05:46 -33.57450 150.67487 829 ft 87 kts 105°
2026-05-06 05:47 -33.57574 150.67929 815 ft 85 kts 106°
2026-05-06 05:47 -33.57789 150.68610 733 ft 87 kts 109°
2026-05-06 05:47 -33.58057 150.69250 702 ft 85 kts 111°
2026-05-06 05:47 -33.58286 150.70033 628 ft 86 kts 102°
2026-05-06 05:50 -33.58353 150.70365 598 ft 86 kts 98°
2026-05-06 05:50 -33.58500 150.71045 604 ft 86 kts 109°
2026-05-06 05:50 -33.58865 150.71651 538 ft 92 kts 138°
2026-05-06 05:51 -33.59503 150.71910 407 ft 102 kts 173°
2026-05-06 05:51 -33.60180 150.71938 425 ft 98 kts 155°
2026-05-06 05:51 -33.60602 150.72508 411 ft 92 kts 101°
2026-05-06 05:51 -33.60589 150.73225 459 ft 86 kts 70°
2026-05-06 05:52 -33.60251 150.73782 505 ft 84 kts 36°
2026-05-06 05:52 -33.59698 150.73980 471 ft 88 kts
2026-05-06 05:52 -33.59132 150.73655 420 ft 96 kts 315°
2026-05-06 05:52 -33.58910 150.72889 420 ft 102 kts 273°
2026-05-06 05:53 -33.59125 150.72132 475 ft 97 kts 231°
2026-05-06 05:53 -33.59729 150.71729 366 ft 103 kts 183°
2026-05-06 05:53 -33.60359 150.71948 408 ft 93 kts 134°
2026-05-06 05:53 -33.60606 150.72589 381 ft 92 kts 95°
2026-05-06 05:54 -33.60580 150.73335 439 ft 87 kts 61°
2026-05-06 05:54 -33.60171 150.73836 383 ft 83 kts 52°
2026-05-06 05:54 -33.59858 150.74409 298 ft 79 kts 60°
2026-05-06 05:54 -33.59769 150.74966 310 ft 53 kts 81°
2026-05-06 05:55 -33.59819 150.75381 310 ft 50 kts 88°
2026-05-06 05:55 -33.59893 150.75815 338 ft 55 kts 95°
2026-05-06 05:55 -33.59954 150.76283 308 ft 61 kts 102°
2026-05-06 05:55 -33.60076 150.76801 181 ft 66 kts 102°
2026-05-06 05:56 -33.60202 150.77282 70 ft 51 kts 99°
2026-05-06 05:56 -33.60265 150.77570 63 ft 11 kts 102°
2026-05-06 05:56 -33.60213 150.77601 66 ft 10 kts 16°
2026-05-06 05:56 -33.60207 150.77603 68 ft 0 kts 16°